Find Starlink 35916

NORAD ID: 66504 Int'l Des: 2025-263 Owner: SPXS Country: US Constellation: starlink operational
LEOCIRCULAR

当前视图

正在加载3D地球...

About Starlink 35916

Starlink 35916 (NORAD 66504) is a starlink constellation satellite (v2 mini) launched Nov 15, 2025 by SPXS of US. It operates in LEO, CIRCULAR orbit with a mass of 575.00 kg.

即将过境

Passes for default location (London). Set your location on the main map for personalized predictions.

高度历史

Loading altitude history...

两行轨道根数

1 66504U 25263V 26237.69323705 .00021016 00000-0 77036-3 0 9990
2 66504 42.9973 119.9301 0001158 292.4294 67.6435 15.27610029 44707
Epoch: Aug 25, 2026 • Age: 17 hours

当前状态

高度 483.1 km
远地点 / 近地点 N/A
速度 7.63 km/s
星下点 26.73°N, 22.47°E
发射日期 Nov 15, 2025
运行时间 0.7 years
类型 internet

技术详情

分类 Payload
质量 575.00 kg
干质量 530.00 kg
总质量 575.00 kg
长度 0.30 m
直径 4.10 m
跨度 29.00 m
形状 Box + pan
制造商 SPXS
平台类型 Starlink V2MO
阶段状态 In Orbit
所有者/国家 SPXS/US

Most Searched